STARLINK-1788, 46689

Orbit data source: Space-Track

STARLINK-1788, 46689 is a payload satellite owned by SpaceX/Seattle (US) in LEO that was launched on Sun, 18 Oct 2020 UTC via an FALCON 9 launch vehicle from the Air Force Eastern Test Range (AFETR). Payload-class satellites include a variety of spacecraft equipped with specific instruments for various scientific and technological missions. These include communications satellites like Starlink; space stations such as the ISS; scientific satellites like the Hubble; Earth observation satellites from companies like Planet Labs, Umbra, and HawkEye 360; GPS; miniature CubeSats for education and research; and military/defense satellites.

Loading next visibility...
Identifier
46689, 2020-073V
Orbit
LEO
Country
Flag of USUS
Related business
Manufacturer
SpaceX/Seattle
Mission
Partially operational Commercial Communications
Bus & Motor
STARLINK, Unknown motor
Mass
260 kg wet, ~248 kg dry
Launch date (UTC)
2020-10-18 (5 years ago)
Launch vehicle
FALCON 9
Launch site
Air Force Eastern Test Range (AFETR)
Object type
Payload
Rocket body
Debris
Shape & HBR
Box + 1 Pan, 10.1 m
Radar Cross Section
13.562 m², Large (>1 m²)

Expand to show TLE details & history
Last TLE update: 11 hours ago

TLE from 11 hours ago
0 STARLINK-1788
1 46689U 20073V   25351.87583270  .00088507  00000-0  18918-2 0  9998
2 46689  53.0523 252.6022 0010353 101.3038 258.9131 15.44057478285997
Epoch: 2025-12-17T21:01Z
TLE epoch observation values (Epoch: 2025-12-17T21:01:11.945Z)
Latitude
-0.00003°
Longitude
-149.437°
Altitude
436.406 km
Speed
7.65 km/s
True Right ascension
16h 50m 24s
True Declination
0° 00' 00"
Sunlit
Object was in daylight at epoch
Visualization orbit readout
Latitude
Unknown
Longitude
Unknown
Altitude
Unknown
Speed
Unknown
Apparent Right ascension
Unknown
Apparent Declination
Unknown
Sunlit
N/A
Visualization observer readout
Local Sidereal Time
06:24:13
Azimuth
Unknown
Elevation
Unknown
Doppler factor
Unknown
Orbital elements
Apogee altitude
441.477 km
Perigee altitude
427.371 km
Semi-major axis
6,812.561 km
Eccentricity
0.00104
Inclination
53.0523°
RAAN
252.6022°
Arg. of periapsis
101.3038°
True anomaly
258.79671°
Mean anomaly
258.9131°
Eccentric anomaly
258.8549°
Mean motion
3.85991 °/min
Orbital period
93.27 mins
BSTAR
0.0018918
Loading maneuver chart data...
Computing Atmospheric mass density...

Documentation

Showing up to 5 results
|